Theta_e
348 348 346 345 347 347 346 347 347 348 348 348 348 348 347 345 343 347 350 352 352 351 353 353 353 353 353 355 355 355 355 355 354 354 354 354 355 355 354 355 356 356
348 348 346 345 346 347 346 346 346 347 346 346 347 347 347 345 343 344 348 351 353 352 353 353 353 352 352 353 354 355 355 354 354 354 354 354 354 355 354 354 355 356
347 348 346 345 345 345 345 345 345 346 345 345 345 346 347 347 345 344 346 350 353 353 353 353 353 353 352 352 353 354 354 354 354 354 354 354 354 355 355 355 355 357
347 347 347 346 345 343 342 343 344 345 345 344 344 345 345 345 346 346 346 348 351 353 353 353 353 353 352 352 353 354 354 353 353 354 354 354 353 354 355 355 355 356
347 346 346 347 346 344 343 343 343 343 344 344 344 343 343 342 343 345 346 347 349 351 352 353 353 353 353 353 354 355 355 354 353 354 355 354 354 354 355 356 355 355
347 345 345 346 346 346 345 343 342 342 342 343 342 341 341 340 340 343 345 346 347 349 351 351 352 352 352 353 354 356 356 355 353 354 355 354 354 356 356 356 356 355
347 346 345 345 345 346 345 344 342 341 341 342 341 340 340 340 339 340 343 345 346 347 348 348 349 350 351 352 353 355 356 356 355 354 355 354 354 355 355 356 356 355
348 347 345 345 344 345 345 344 343 342 341 341 341 340 340 341 340 339 341 344 345 346 346 346 347 348 350 352 352 353 354 355 355 355 355 355 354 354 353 354 355 354
348 347 347 345 344 344 344 344 344 342 341 341 341 341 341 341 341 340 340 342 343 345 346 346 347 347 349 351 351 352 352 352 354 354 355 356 355 354 352 352 353 352
348 348 347 347 345 344 343 343 344 344 343 342 341 342 343 343 343 341 341 342 342 343 345 346 347 347 349 351 351 351 352 351 351 352 353 354 354 354 353 352 352 351
349 348 348 347 346 345 344 342 343 344 344 344 342 342 343 342 343 342 341 343 342 342 343 344 345 345 347 349 349 351 352 352 352 352 352 352 352 353 354 354 354 352
350 349 349 349 347 347 346 344 343 343 343 344 344 344 343 341 341 341 341 341 341 341 341 342 342 343 344 344 345 348 351 352 353 353 353 352 352 352 353 354 355 354
352 351 350 349 349 348 347 345 345 343 342 343 343 344 344 343 342 340 340 339 339 339 340 340 340 340 340 340 340 344 349 351 352 353 353 353 352 352 352 353 353 353
353 352 351 351 350 349 349 348 347 345 344 343 343 343 343 343 343 343 341 341 340 339 340 340 340 340 340 339 340 342 346 349 350 352 352 353 353 352 352 352 353 353
354 353 353 352 352 351 350 349 349 347 346 345 344 344 343 343 343 343 343 343 342 342 341 341 342 343 342 341 341 343 346 347 349 350 351 352 352 352 352 353 352 352
355 355 354 354 353 352 352 351 351 350 349 347 347 345 345 344 344 344 344 345 344 344 344 343 344 344 344 343 343 343 346 347 349 350 350 351 352 352 352 352 352 351
356 355 355 355 354 354 354 353 352 352 351 350 349 348 347 346 345 345 345 345 345 345 345 345 345 345 345 345 345 345 347 348 349 350 351 351 352 352 352 352 351 351
357 357 356 356 356 355 355 354 354 354 353 352 351 350 349 348 347 347 346 346 346 346 346 346 346 346 346 346 346 347 348 349 350 351 351 352 352 352 352 352 352 351
358 358 358 357 357 356 356 355 355 354 354 354 354 353 352 351 350 349 348 347 347 347 347 347 347 347 347 347 347 347 348 349 350 351 352 352 352 352 352 352 352 353
358 359 358 358 358 358 357 357 356 356 355 355 355 354 354 353 353 352 351 350 349 348 348 348 348 348 348 348 348 348 348 349 350 351 351 352 352 352 352 352 352 353
359 359 359 359 358 358 358 357 357 356 356 355 355 355 354 354 354 354 353 352 351 351 350 350 350 349 349 349 349 348 348 349 351 352 352 352 352 352 353 352 352 353
360 360 359 359 359 358 358 357 357 357 356 356 356 355 355 355 354 354 354 354 353 353 352 351 351 350 350 350 349 350 349 349 351 352 353 353 353 353 353 353 353 353
360 360 360 360 360 359 359 358 358 357 357 356 356 355 355 355 354 354 354 354 354 354 353 352 352 351 351 351 350 350 350 350 350 352 353 353 353 354 354 354 354 354
361 361 361 361 360 360 360 359 359 358 358 357 356 356 356 355 355 355 354 354 354 354 353 353 353 352 352 351 351 351 351 351 351 351 352 353 353 353 354 354 354 355
359 360 361 361 361 361 360 360 360 359 358 358 357 356 356 355 355 355 354 354 354 354 354 354 353 353 353 352 352 351 351 352 352 351 352 352 353 353 354 355 355 355
357 358 359 360 361 361 361 361 360 359 359 358 358 357 356 356 355 355 355 354 354 354 354 354 354 353 353 353 352 352 352 352 352 352 352 352 353 353 353 354 355 355
Wind_Speed
38 38 38 38 37 35 34 33 32 31 31 30 29 27 26 25 25 25 25 23 22 22 21 20 19 20 20 18 17 16 16 16 15 15 15 14 13 12 11 11 10 9
38 38 38 38 38 37 36 35 35 33 32 31 29 28 26 24 24 25 26 25 24 23 22 21 21 20 21 21 20 19 18 18 16 15 16 17 15 13 12 11 11 10
39 39 38 38 39 39 38 36 36 36 34 32 31 29 27 26 25 25 26 26 25 24 23 23 22 21 21 22 22 21 20 19 17 14 15 17 16 14 13 11 11 12
40 40 40 39 40 40 39 37 37 37 36 34 33 31 29 28 27 26 26 27 27 26 25 24 23 22 22 22 22 22 21 20 19 16 15 17 17 16 15 13 13 13
42 41 41 40 39 38 38 37 38 38 38 37 36 34 32 31 29 28 28 27 27 27 26 25 24 23 23 22 22 21 21 21 20 18 16 17 18 18 17 15 15 15
42 41 40 40 38 36 36 38 39 39 39 39 37 36 35 33 32 31 30 29 28 27 27 27 26 25 24 24 23 23 23 22 21 20 19 19 19 19 18 17 17 16
40 40 40 39 37 36 35 37 39 39 40 40 38 37 36 35 34 33 32 31 29 28 28 27 27 26 25 25 25 25 25 24 23 22 22 22 21 21 21 20 20 19
40 40 40 39 38 36 35 36 37 38 40 39 39 39 37 36 35 34 33 32 31 30 29 28 27 26 26 26 26 26 26 26 26 25 25 25 24 24 25 24 24 23
38 38 39 39 39 38 37 36 36 36 37 38 39 40 39 38 37 36 35 34 33 32 31 30 29 28 27 27 27 27 28 28 27 27 28 27 27 26 26 26 25 26
38 38 38 38 39 39 39 38 36 35 34 36 37 38 38 38 38 37 36 35 35 34 33 32 31 30 30 29 29 29 29 29 29 29 29 29 28 28 27 26 25 26
38 37 37 38 39 40 40 40 38 36 34 34 35 35 36 36 36 36 36 36 36 36 35 34 33 32 32 31 31 31 31 31 31 30 30 29 29 29 28 27 26 26
38 38 38 39 39 39 40 41 40 38 36 35 35 35 35 35 35 36 36 36 37 37 36 36 35 34 34 33 33 32 32 32 32 31 31 30 30 29 28 28 27 27
38 39 39 39 39 39 40 40 40 40 39 38 36 35 35 35 35 36 37 38 38 38 38 37 36 35 35 35 34 33 33 32 32 32 32 31 30 30 29 29 28 28
39 39 39 40 40 39 39 39 40 40 40 40 37 36 36 36 36 37 37 38 38 39 39 38 37 36 36 35 35 34 33 33 33 33 32 32 31 31 30 29 29 29
39 39 39 39 39 38 39 39 39 39 38 38 37 36 36 36 36 36 36 36 36 37 38 37 36 36 36 36 36 35 34 34 33 33 33 32 32 31 31 30 30 30
38 38 37 37 37 38 38 38 38 37 36 36 36 36 36 36 36 35 35 35 35 36 36 36 36 36 36 37 37 36 35 34 34 34 34 33 33 32 32 31 31 31
37 37 36 36 37 38 38 38 37 37 36 35 35 35 36 35 35 35 35 35 35 35 35 36 36 36 36 36 37 37 36 35 34 34 34 34 33 33 33 33 32 32
36 36 36 37 38 38 38 38 37 36 36 35 35 35 34 34 34 35 35 35 35 35 35 36 37 37 36 36 36 36 36 36 35 34 33 33 33 33 33 33 33 33
35 35 36 36 37 38 38 37 37 37 37 36 36 35 33 33 34 35 35 35 35 35 35 36 36 37 37 36 37 37 36 36 35 34 34 33 33 33 33 33 33 33
35 36 36 37 37 37 37 36 37 37 38 37 36 34 33 34 34 34 34 36 36 36 36 36 36 36 36 36 37 37 37 36 36 35 34 34 34 34 34 34 34 34
35 36 36 37 37 37 37 37 37 37 36 36 35 34 34 35 34 34 34 35 36 36 36 36 37 37 36 36 37 37 37 36 36 36 35 35 35 36 36 36 36 35
34 35 35 36 36 36 36 37 37 37 37 36 35 35 35 35 34 34 35 35 36 36 36 37 38 37 36 37 37 36 36 36 36 36 36 36 36 37 37 38 37 36
34 34 35 35 35 34 35 36 37 36 36 36 35 34 34 35 35 36 36 36 36 36 37 38 39 38 37 37 37 36 36 36 36 36 36 36 37 38 38 38 38 38
33 34 34 33 33 35 35 35 35 35 35 35 35 35 35 35 36 36 36 36 37 37 38 39 39 39 38 38 38 37 36 36 36 36 36 36 37 38 38 38 38 38
30 32 33 33 33 34 35 34 34 34 34 35 35 36 35 35 35 34 35 36 37 38 39 39 39 39 38 38 38 37 36 36 36 36 36 36 37 37 37 37 37 37
28 30 32 34 34 35 34 34 34 34 34 35 36 36 35 35 34 34 34 35 36 37 38 39 39 39 39 39 39 38 38 37 36 36 36 37 36 36 36 35 35 36
Wind_Direction
210 211 213 214 215 217 217 216 218 218 219 221 223 225 224 223 222 220 219 219 221 224 226 230 233 234 234 234 236 239 244 252 259 258 250 248 253 256 255 251 249 254
211 213 214 214 214 217 219 219 219 220 222 223 224 225 227 226 226 224 222 222 222 225 228 231 234 236 237 235 236 239 244 250 256 256 249 247 251 255 256 253 251 255
212 213 214 214 214 217 219 220 221 222 224 224 224 226 228 229 228 227 226 224 225 227 230 233 236 238 238 236 237 240 242 246 251 253 252 248 248 252 254 253 253 254
211 213 214 215 216 217 219 220 221 222 224 225 225 226 229 231 231 230 229 228 229 230 232 235 238 240 240 236 235 239 242 244 247 251 254 249 245 249 252 254 255 253
211 214 215 216 218 218 220 221 221 222 223 225 226 227 230 232 233 233 231 230 231 233 235 237 239 242 242 237 234 239 243 246 246 246 250 249 245 247 250 251 254 255
211 213 215 217 219 220 221 222 223 224 224 224 226 228 231 232 233 233 232 231 232 233 235 237 239 241 242 240 238 240 244 246 247 246 247 248 247 248 250 250 251 255
210 212 214 217 220 221 223 223 224 224 224 225 226 228 230 231 232 232 232 232 232 233 234 236 238 239 241 242 242 243 244 246 248 248 249 251 250 250 252 252 253 255
210 212 213 216 219 221 224 225 225 225 225 225 226 227 229 230 232 232 233 234 233 233 235 235 237 239 240 241 243 244 245 246 248 249 251 254 254 254 253 253 255 257
211 212 213 214 217 220 224 227 227 227 226 226 226 228 229 230 232 233 234 235 235 235 236 237 238 240 240 242 243 245 246 247 248 250 252 254 256 257 256 254 255 256
211 213 213 214 216 219 222 226 228 229 228 227 227 228 228 230 232 233 234 235 236 237 237 238 240 241 242 243 245 246 248 249 250 251 253 255 257 259 259 257 255 254
212 212 213 215 216 218 221 223 226 229 230 230 229 229 229 230 231 232 233 234 236 238 239 240 242 243 244 245 247 248 248 250 251 251 253 256 258 260 260 259 257 255
212 212 214 215 217 219 221 222 224 226 229 231 232 232 231 231 232 232 233 235 237 240 241 242 243 244 245 247 249 249 249 249 250 251 253 256 259 261 262 262 261 260
212 213 214 216 218 220 221 223 223 224 226 229 231 233 233 233 233 234 236 237 239 240 241 243 243 244 245 247 248 249 248 249 249 250 252 255 258 261 262 263 264 263
213 214 215 216 218 220 221 223 224 225 225 226 228 230 232 233 234 235 237 238 240 241 242 243 243 244 245 246 247 247 246 247 248 250 252 254 257 260 261 263 264 265
213 214 215 217 218 219 221 223 225 226 227 227 227 228 231 233 234 235 236 237 238 241 242 243 243 242 243 245 245 245 244 245 247 248 250 253 256 258 260 262 263 266
214 214 215 216 217 219 221 223 225 227 228 228 228 229 230 232 234 234 235 236 237 239 241 241 242 242 243 244 245 245 244 244 244 246 248 251 254 257 259 261 263 265
213 214 215 216 217 219 221 223 224 225 227 228 229 230 231 232 233 234 234 235 236 238 239 240 241 242 242 243 244 245 244 243 243 245 246 248 250 253 256 260 262 264
213 214 214 216 217 218 220 222 223 224 225 226 228 229 230 231 232 233 234 235 236 237 238 239 241 243 243 243 244 244 244 244 243 243 244 246 248 251 254 258 260 261
214 214 215 216 218 219 220 221 221 222 223 224 226 227 228 230 232 233 234 235 235 236 237 239 241 243 244 244 244 245 244 243 242 242 243 245 247 250 253 256 258 259
214 214 215 217 218 219 220 220 221 222 223 223 224 225 226 228 230 231 233 235 235 236 237 239 241 243 244 245 245 245 245 243 242 241 242 244 247 250 252 255 257 258
214 214 215 217 218 218 219 220 221 222 223 223 223 223 225 226 228 230 231 233 235 236 237 239 241 243 244 245 246 246 245 244 242 240 240 242 246 249 251 254 256 257
215 215 216 218 217 217 218 219 220 221 222 222 222 223 224 226 227 228 230 232 234 234 236 238 241 242 243 244 246 246 244 243 241 240 238 240 243 246 249 252 254 255
218 217 218 218 218 217 219 220 220 221 221 221 220 221 223 224 225 227 229 230 232 233 234 237 240 241 241 243 245 245 243 242 240 239 238 239 242 245 247 249 251 252
222 220 219 219 218 219 220 221 221 222 222 221 221 221 222 224 225 226 227 228 230 231 232 235 238 240 240 241 243 243 242 241 240 238 237 239 242 244 246 247 249 251
230 227 225 222 221 221 221 221 221 221 222 222 222 223 224 225 225 226 227 227 228 230 232 233 236 239 239 240 241 242 241 240 238 236 235 238 241 243 245 246 247 250
238 234 231 227 226 224 224 223 222 221 221 221 221 222 223 224 225 225 226 228 228 229 231 232 234 237 238 239 240 240 240 239 235 232 234 237 240 241 244 246 247 248